| time (UTC) | temp F | wind direction | speed MPH | gust MPH | rain 1hr in | rain 24hr in | rain mn in | humidity % | barometer mb |
| 20260506224349 | 78 | 313 | 2.0 | 11.0 | 0.00 | 0.00 | 0.00 | 28 | 1023.5 |
| 20260506223629 | 78 | 278 | 2.0 | 11.0 | 0.00 | 0.00 | 0.00 | 28 | 1023.5 |
| 20260506223354 | 78 | 312 | 2.0 | 11.0 | 0.00 | 0.00 | 0.00 | 28 | 1023.5 |
| 20260506222630 | 79 | 248 | 1.0 | 7.0 | 0.00 | 0.00 | 0.00 | 29 | 1023.6 |
| 20260506222127 | 79 | 333 | 2.0 | 9.0 | 0.00 | 0.00 | 0.00 | 29 | 1023.5 |
| 20260506221629 | 79 | 240 | 1.0 | 9.0 | 0.00 | 0.00 | 0.00 | 29 | 1023.6 |
| 20260506221128 | 79 | 283 | 1.0 | 11.0 | 0.00 | 0.00 | 0.00 | 29 | 1023.5 |
| 20260506220627 | 80 | 1 | 2.0 | 11.0 | 0.00 | 0.00 | 0.00 | 29 | 1023.5 |
| 20260506220128 | 80 | 296 | 3.0 | 9.0 | 0.00 | 0.00 | 0.00 | 28 | 1023.6 |
| 20260506215628 | 80 | 305 | 1.0 | 5.0 | 0.00 | 0.00 | 0.00 | 29 | 1023.6 |
| 20260506215345 | 81 | 317 | 2.0 | 5.0 | 0.00 | 0.00 | 0.00 | 28 | 1023.5 |
| 20260506214627 | 81 | 65 | 2.0 | 5.0 | 0.00 | 0.00 | 0.00 | 29 | 1023.7 |
| 20260506214129 | 81 | 285 | 1.0 | 13.0 | 0.00 | 0.00 | 0.00 | 28 | 1023.5 |
| 20260506213627 | 81 | 326 | 2.0 | 16.0 | 0.00 | 0.00 | 0.00 | 27 | 1023.4 |
| 20260506213128 | 81 | 38 | 4.0 | 16.0 | 0.00 | 0.00 | 0.00 | 27 | 1023.5 |
| 20260506212627 | 81 | 0 | 2.0 | 7.0 | 0.00 | 0.00 | 0.00 | 29 | 1023.5 |
| 20260506212127 | 81 | 31 | 2.0 | 7.0 | 0.00 | 0.00 | 0.00 | 28 | 1023.6 |
| 20260506211849 | 82 | 354 | 2.0 | 5.0 | 0.00 | 0.00 | 0.00 | 28 | 1023.6 |
| 20260506211126 | 82 | 131 | 2.0 | 13.0 | 0.00 | 0.00 | 0.00 | 28 | 1023.5 |
| 20260506210627 | 81 | 286 | 2.0 | 13.0 | 0.00 | 0.00 | 0.00 | 27 | 1023.4 |
| 20260506210126 | 82 | 288 | 3.0 | 6.0 | 0.00 | 0.00 | 0.00 | 29 | 1023.4 |
| 20260506205627 | 82 | 248 | 1.0 | 9.0 | 0.00 | 0.00 | 0.00 | 27 | 1023.6 |
| 20260506205126 | 81 | 268 | 2.0 | 12.0 | 0.00 | 0.00 | 0.00 | 27 | 1023.5 |
| 20260506204851 | 82 | 353 | 3.0 | 12.0 | 0.00 | 0.00 | 0.00 | 27 | 1023.6 |
| 20260506204125 | 82 | 272 | 3.0 | 10.0 | 0.00 | 0.00 | 0.00 | 27 | 1023.6 |
| 20260506203626 | 81 | 295 | 1.0 | 12.0 | 0.00 | 0.00 | 0.00 | 30 | 1023.6 |
| 20260506203126 | 81 | 262 | 2.0 | 12.0 | 0.00 | 0.00 | 0.00 | 28 | 1023.6 |
| 20260506202624 | 82 | 240 | 2.0 | 6.0 | 0.00 | 0.00 | 0.00 | 28 | 1023.6 |
| 20260506202126 | 82 | 298 | 3.0 | 10.0 | 0.00 | 0.00 | 0.00 | 28 | 1023.6 |
| 20260506201625 | 82 | 18 | 3.0 | 10.0 | 0.00 | 0.00 | 0.00 | 27 | 1023.6 |
| 20260506201130 | 82 | 295 | 2.0 | 6.0 | 0.00 | 0.00 | 0.00 | 30 | 1023.8 |
| 20260506200625 | 82 | 286 | 2.0 | 7.0 | 0.00 | 0.00 | 0.00 | 29 | 1023.8 |
| 20260506200350 | 81 | 31 | 3.0 | 7.0 | 0.00 | 0.00 | 0.00 | 29 | 1023.8 |
| 20260506195624 | 81 | 17 | 3.0 | 10.0 | 0.00 | 0.00 | 0.00 | 31 | 1023.8 |
| 20260506195125 | 80 | 293 | 2.0 | 10.0 | 0.00 | 0.00 | 0.00 | 29 | 1024.0 |
| 20260506194625 | 80 | 107 | 3.0 | 11.0 | 0.00 | 0.00 | 0.00 | 30 | 1024.0 |
| 20260506194124 | 79 | 251 | 2.0 | 11.0 | 0.00 | 0.00 | 0.00 | 31 | 1024.1 |
| 20260506193625 | 79 | 282 | 5.0 | 11.0 | 0.00 | 0.00 | 0.00 | 31 | 1023.9 |
| 20260506193124 | 80 | 285 | 3.0 | 6.0 | 0.00 | 0.00 | 0.00 | 31 | 1023.9 |
| 20260506192625 | 79 | 275 | 2.0 | 12.0 | 0.00 | 0.00 | 0.00 | 32 | 1024.1 |
| 20260506192124 | 79 | 288 | 5.0 | 15.0 | 0.00 | 0.00 | 0.00 | 30 | 1024.0 |
| 20260506191623 | 80 | 289 | 5.0 | 15.0 | 0.00 | 0.00 | 0.00 | 29 | 1024.0 |
| 20260506191123 | 80 | 341 | 2.0 | 11.0 | 0.00 | 0.00 | 0.00 | 31 | 1024.0 |
| 20260506190623 | 80 | 20 | 1.0 | 12.0 | 0.00 | 0.00 | 0.00 | 31 | 1024.0 |
| 20260506190124 | 80 | 314 | 4.0 | 14.0 | 0.00 | 0.00 | 0.00 | 31 | 1024.1 |
| 20260506185624 | 80 | 290 | 5.0 | 14.0 | 0.00 | 0.00 | 0.00 | 28 | 1023.9 |
| 20260506185124 | 81 | 292 | 2.0 | 9.0 | 0.00 | 0.00 | 0.00 | 31 | 1024.0 |
| 20260506184847 | 80 | 248 | 2.0 | 9.0 | 0.00 | 0.00 | 0.00 | 31 | 1024.0 |
| 20260506184125 | 80 | 278 | 2.0 | 6.0 | 0.00 | 0.00 | 0.00 | 31 | 1024.0 |
| 20260506183623 | 80 | 283 | 2.0 | 5.0 | 0.00 | 0.00 | 0.00 | 33 | 1023.9 |
| 20260506183611 | 79 | 321 | 2.0 | 9.0 | 0.00 | 0.00 | 0.00 | 32 | 1023.9 |
| 20260506182623 | 79 | 341 | 2.0 | 9.0 | 0.00 | 0.00 | 0.00 | 32 | 1024.0 |
| 20260506182122 | 80 | 333 | 2.0 | 10.0 | 0.00 | 0.00 | 0.00 | 32 | 1024.0 |
| 20260506181623 | 79 | 293 | 1.0 | 10.0 | 0.00 | 0.00 | 0.00 | 31 | 1024.0 |
| 20260506181122 | 79 | 250 | 2.0 | 12.0 | 0.00 | 0.00 | 0.00 | 30 | 1024.1 |
| 20260506180623 | 79 | 27 | 2.0 | 12.0 | 0.00 | 0.00 | 0.00 | 31 | 1024.0 |
| 20260506180122 | 80 | 303 | 2.0 | 9.0 | 0.00 | 0.00 | 0.00 | 30 | 1024.1 |
| 20260506175624 | 80 | 289 | 2.0 | 11.0 | 0.00 | 0.00 | 0.00 | 30 | 1024.1 |
| 20260506175342 | 80 | 20 | 2.0 | 11.0 | 0.00 | 0.00 | 0.00 | 31 | 1024.1 |
| 20260506174621 | 79 | 28 | 2.0 | 12.0 | 0.00 | 0.00 | 0.00 | 31 | 1024.0 |
| 20260506174604 | 79 | 272 | 2.0 | 12.0 | 0.00 | 0.00 | 0.00 | 29 | 1024.1 |
| 20260506173621 | 79 | 255 | 4.0 | 10.0 | 0.00 | 0.00 | 0.00 | 31 | 1024.2 |
| 20260506173122 | 79 | 309 | 2.0 | 9.0 | 0.00 | 0.00 | 0.00 | 32 | 1024.1 |
| 20260506172621 | 79 | 285 | 1.0 | 9.0 | 0.00 | 0.00 | 0.00 | 32 | 1024.1 |
| 20260506172123 | 79 | 257 | 3.0 | 15.0 | 0.00 | 0.00 | 0.00 | 31 | 1024.0 |
| 20260506171843 | 78 | 25 | 2.0 | 15.0 | 0.00 | 0.00 | 0.00 | 31 | 1024.0 |
| 20260506171121 | 78 | 313 | 2.0 | 9.0 | 0.00 | 0.00 | 0.00 | 32 | 1024.1 |
| 20260506170842 | 77 | 276 | 2.0 | 11.0 | 0.00 | 0.00 | 0.00 | 33 | 1024.1 |
| 20260506170121 | 77 | 268 | 4.0 | 13.0 | 0.00 | 0.00 | 0.00 | 32 | 1024.1 |
| 20260506165618 | 76 | 321 | 5.0 | 13.0 | 0.00 | 0.00 | 0.00 | 32 | 1024.1 |
| 20260506165121 | 76 | 272 | 1.0 | 13.0 | 0.00 | 0.00 | 0.00 | 34 | 1024.1 |
| 20260506164853 | 76 | 44 | 1.0 | 13.0 | 0.00 | 0.00 | 0.00 | 36 | 1024.2 |
| 20260506164120 | 75 | 303 | 2.0 | 11.0 | 0.00 | 0.00 | 0.00 | 36 | 1024.4 |
| 20260506163622 | 75 | 282 | 2.0 | 14.0 | 0.00 | 0.00 | 0.00 | 35 | 1024.5 |
| 20260506163119 | 75 | 272 | 4.0 | 14.0 | 0.00 | 0.00 | 0.00 | 35 | 1024.5 |
| 20260506162620 | 74 | 32 | 3.0 | 14.0 | 0.00 | 0.00 | 0.00 | 37 | 1024.5 |
| 20260506162341 | 74 | 13 | 5.0 | 14.0 | 0.00 | 0.00 | 0.00 | 37 | 1024.6 |
| 20260506161620 | 74 | 306 | 2.0 | 12.0 | 0.00 | 0.00 | 0.00 | 38 | 1024.7 |
| 20260506161117 | 74 | 302 | 1.0 | 12.0 | 0.00 | 0.00 | 0.00 | 38 | 1024.7 |
| 20260506160620 | 73 | 271 | 1.0 | 12.0 | 0.00 | 0.00 | 0.00 | 38 | 1024.8 |
| 20260506160121 | 73 | 63 | 2.0 | 6.0 | 0.00 | 0.00 | 0.00 | 41 | 1024.8 |
| 20260506155620 | 73 | 265 | 2.0 | 6.0 | 0.00 | 0.00 | 0.00 | 41 | 1024.7 |
| 20260506155121 | 72 | 18 | 0.0 | 6.0 | 0.00 | 0.00 | 0.00 | 43 | 1024.8 |
| 20260506154618 | 71 | 293 | 0.0 | 9.0 | 0.00 | 0.00 | 0.00 | 45 | 1024.9 |
| 20260506154118 | 69 | 251 | 2.0 | 9.0 | 0.00 | 0.00 | 0.00 | 42 | 1024.8 |
| 20260506153619 | 68 | 286 | 2.0 | 5.0 | 0.00 | 0.00 | 0.00 | 46 | 1025.1 |
| 20260506153119 | 68 | 76 | 1.0 | 3.0 | 0.00 | 0.00 | 0.00 | 47 | 1025.1 |
| 20260506152619 | 67 | 96 | 2.0 | 5.0 | 0.00 | 0.00 | 0.00 | 47 | 1025.1 |
| 20260506152119 | 67 | 49 | 2.0 | 5.0 | 0.00 | 0.00 | 0.00 | 46 | 1025.3 |
| 20260506151619 | 66 | 100 | 2.0 | 5.0 | 0.00 | 0.00 | 0.00 | 48 | 1025.2 |
| 20260506151118 | 65 | 106 | 3.0 | 5.0 | 0.00 | 0.00 | 0.00 | 52 | 1025.2 |
| 20260506150619 | 63 | 18 | 0.0 | 7.0 | 0.00 | 0.00 | 0.00 | 52 | 1025.3 |
| 20260506150118 | 62 | 55 | 4.0 | 7.0 | 0.00 | 0.00 | 0.00 | 53 | 1025.3 |
| 20260506145618 | 62 | 63 | 2.0 | 7.0 | 0.00 | 0.00 | 0.00 | 54 | 1025.5 |
| 20260506145118 | 61 | 99 | 4.0 | 7.0 | 0.00 | 0.00 | 0.00 | 54 | 1025.4 |
| 20260506144619 | 60 | 117 | 1.0 | 5.0 | 0.00 | 0.00 | 0.00 | 56 | 1025.6 |
| 20260506144116 | 59 | 72 | 0.0 | 5.0 | 0.00 | 0.00 | 0.00 | 57 | 1025.6 |
| 20260506143844 | 58 | 106 | 1.0 | 4.0 | 0.00 | 0.00 | 0.00 | 58 | 1025.6 |
| 20260506143119 | 57 | 65 | 2.0 | 5.0 | 0.00 | 0.00 | 0.00 | 59 | 1025.5 |
| 20260506142618 | 56 | 109 | 2.0 | 5.0 | 0.00 | 0.00 | 0.00 | 60 | 1025.6 |
| 20260506142341 | 55 | 55 | 0.0 | 3.0 | 0.00 | 0.00 | 0.00 | 64 | 1025.7 |
| 20260506141616 | 54 | 103 | 1.0 | 3.0 | 0.00 | 0.00 | 0.00 | 65 | 1025.6 |
| 20260506141116 | 54 | 100 | 1.0 | 3.0 | 0.00 | 0.00 | 0.00 | 65 | 1025.6 |
| 20260506140617 | 53 | 61 | 0.0 | 2.0 | 0.00 | 0.00 | 0.00 | 66 | 1025.7 |
| 20260506140117 | 53 | 93 | 0.0 | 2.0 | 0.00 | 0.00 | 0.00 | 68 | 1025.7 |
| 20260506135618 | 52 | 113 | 0.0 | 3.0 | 0.00 | 0.00 | 0.00 | 68 | 1025.6 |
| 20260506135116 | 52 | 82 | 1.0 | 3.0 | 0.00 | 0.00 | 0.00 | 68 | 1025.6 |
| 20260506134845 | 52 | 104 | 1.0 | 3.0 | 0.00 | 0.00 | 0.00 | 66 | 1025.6 |
| 20260506134117 | 52 | 34 | 1.0 | 3.0 | 0.00 | 0.00 | 0.00 | 68 | 1025.6 |
| 20260506133617 | 51 | 285 | 0.0 | 3.0 | 0.00 | 0.00 | 0.00 | 68 | 1025.7 |
| 20260506133348 | 51 | 100 | 0.0 | 3.0 | 0.00 | 0.00 | 0.00 | 69 | 1025.6 |
| 20260506132842 | 50 | 72 | 0.0 | 3.0 | 0.00 | 0.00 | 0.00 | 69 | 1025.6 |
| 20260506132116 | 50 | 96 | 1.0 | 5.0 | 0.00 | 0.00 | 0.00 | 69 | 1025.5 |
| 20260506131841 | 50 | 164 | 0.0 | 5.0 | 0.00 | 0.00 | 0.00 | 68 | 1025.6 |
| 20260506131117 | 49 | 86 | 1.0 | 4.0 | 0.00 | 0.00 | 0.00 | 70 | 1025.4 |
| 20260506130615 | 49 | 111 | 0.0 | 4.0 | 0.00 | 0.00 | 0.00 | 71 | 1025.6 |
| 20260506130117 | 49 | 54 | 2.0 | 4.0 | 0.00 | 0.00 | 0.00 | 70 | 1025.6 |
| 20260506125615 | 49 | 259 | 0.0 | 4.0 | 0.00 | 0.00 | 0.00 | 70 | 1025.6 |
| 20260506125340 | 49 | 24 | 1.0 | 4.0 | 0.00 | 0.00 | 0.00 | 68 | 1025.5 |
| 20260506124620 | 50 | 127 | 2.0 | 4.0 | 0.00 | 0.00 | 0.00 | 67 | 1025.5 |
| 20260506124114 | 49 | 127 | 0.0 | 3.0 | 0.00 | 0.00 | 0.00 | 67 | 1025.5 |
| 20260506124100 | 49 | 121 | 0.0 | 4.0 | 0.00 | 0.00 | 0.00 | 67 | 1025.4 |
| 20260506123111 | 49 | 135 | 0.0 | 4.0 | 0.00 | 0.00 | 0.00 | 68 | 1025.4 |
| 20260506122613 | 49 | 130 | 0.0 | 2.0 | 0.00 | 0.00 | 0.00 | 67 | 1025.4 |
| 20260506122114 | 50 | 172 | 0.0 | 3.0 | 0.00 | 0.00 | 0.00 | 66 | 1025.3 |
| 20260506121616 | 50 | 144 | 1.0 | 3.0 | 0.00 | 0.00 | 0.00 | 65 | 1025.3 |
| 20260506121114 | 50 | 54 | 1.0 | 2.0 | 0.00 | 0.00 | 0.00 | 65 | 1025.3 |
| 20260506120615 | 50 | 131 | 0.0 | 3.0 | 0.00 | 0.00 | 0.00 | 64 | 1025.2 |
| 20260506120340 | 51 | 149 | 3.0 | 3.0 | 0.00 | 0.00 | 0.00 | 64 | 1025.2 |
| 20260506115610 | 51 | 116 | 0.0 | 3.0 | 0.00 | 0.00 | 0.00 | 63 | 1025.2 |
| 20260506115112 | 51 | 106 | 1.0 | 5.0 | 0.00 | 0.00 | 0.00 | 63 | 1025.2 |
| 20260506114610 | 51 | 279 | 2.0 | 5.0 | 0.00 | 0.00 | 0.00 | 63 | 1025.2 |
| 20260506114112 | 51 | 305 | 0.0 | 5.0 | 0.00 | 0.00 | 0.00 | 64 | 1025.3 |
| 20260506113613 | 51 | 204 | 2.0 | 5.0 | 0.00 | 0.00 | 0.00 | 64 | 1025.2 |
| 20260506113113 | 50 | 199 | 0.0 | 3.0 | 0.00 | 0.00 | 0.00 | 65 | 1025.2 |
| 20260506112613 | 50 | 127 | 0.0 | 3.0 | 0.00 | 0.00 | 0.00 | 65 | 1025.2 |
| 20260506112109 | 51 | 158 | 0.0 | 4.0 | 0.00 | 0.00 | 0.00 | 66 | 1025.3 |
| 20260506111610 | 51 | 279 | 1.0 | 4.0 | 0.00 | 0.00 | 0.00 | 64 | 1025.3 |
| 20260506111110 | 51 | 219 | 0.0 | 4.0 | 0.00 | 0.00 | 0.00 | 63 | 1025.3 |
| 20260506110611 | 52 | 158 | 2.0 | 4.0 | 0.00 | 0.00 | 0.00 | 62 | 1025.2 |
| 20260506110109 | 52 | 240 | 0.0 | 3.0 | 0.00 | 0.00 | 0.00 | 61 | 1025.3 |
| 20260506105610 | 53 | 121 | 1.0 | 4.0 | 0.00 | 0.00 | 0.00 | 60 | 1025.1 |
| 20260506105112 | 53 | 145 | 2.0 | 6.0 | 0.00 | 0.00 | 0.00 | 60 | 1025.2 |
| 20260506104612 | 53 | 137 | 4.0 | 6.0 | 0.00 | 0.00 | 0.00 | 62 | 1025.1 |
| 20260506104113 | 52 | 104 | 2.0 | 3.0 | 0.00 | 0.00 | 0.00 | 61 | 1025.2 |
| 20260506103612 | 52 | 58 | 1.0 | 4.0 | 0.00 | 0.00 | 0.00 | 62 | 1025.2 |
| 20260506103112 | 53 | 116 | 4.0 | 4.0 | 0.00 | 0.00 | 0.00 | 61 | 1025.2 |
| 20260506103102 | 53 | 329 | 0.0 | 3.0 | 0.00 | 0.00 | 0.00 | 60 | 1025.2 |
| 20260506102113 | 53 | 152 | 1.0 | 3.0 | 0.00 | 0.00 | 0.00 | 59 | 1025.1 |
| 20260506101612 | 54 | 213 | 0.0 | 3.0 | 0.00 | 0.00 | 0.00 | 58 | 1025.1 |
| 20260506101113 | 54 | 186 | 2.0 | 2.0 | 0.00 | 0.00 | 0.00 | 58 | 1025.1 |
| 20260506100611 | 54 | 240 | 0.0 | 2.0 | 0.00 | 0.00 | 0.00 | 59 | 1025.1 |
| 20260506100111 | 54 | 216 | 0.0 | 3.0 | 0.00 | 0.00 | 0.00 | 58 | 1025.0 |
| 20260506095832 | 55 | 162 | 2.0 | 3.0 | 0.00 | 0.00 | 0.00 | 58 | 1025.0 |
| 20260506095112 | 54 | 238 | 1.0 | 2.0 | 0.00 | 0.00 | 0.00 | 58 | 1025.1 |
| 20260506094611 | 55 | 217 | 1.0 | 2.0 | 0.00 | 0.00 | 0.00 | 58 | 1025.0 |
| 20260506094111 | 55 | 202 | 0.0 | 2.0 | 0.00 | 0.00 | 0.00 | 57 | 1025.0 |
| 20260506093611 | 56 | 228 | 0.0 | 2.0 | 0.00 | 0.00 | 0.00 | 56 | 1025.0 |
| 20260506093110 | 56 | 200 | 1.0 | 3.0 | 0.00 | 0.00 | 0.00 | 55 | 1025.0 |
| 20260506092612 | 57 | 278 | 0.0 | 3.0 | 0.00 | 0.00 | 0.00 | 54 | 1025.1 |
| 20260506092110 | 57 | 276 | 0.0 | 4.0 | 0.00 | 0.00 | 0.00 | 54 | 1025.1 |
| 20260506091610 | 57 | 275 | 2.0 | 4.0 | 0.00 | 0.00 | 0.00 | 54 | 1025.1 |
| 20260506091109 | 57 | 314 | 2.0 | 4.0 | 0.00 | 0.00 | 0.00 | 53 | 1025.1 |
| 20260506090610 | 58 | 144 | 1.0 | 5.0 | 0.00 | 0.00 | 0.00 | 52 | 1024.9 |
| 20260506090111 | 58 | 151 | 2.0 | 5.0 | 0.00 | 0.00 | 0.00 | 52 | 1024.9 |
| 20260506085610 | 58 | 251 | 2.0 | 4.0 | 0.00 | 0.00 | 0.00 | 52 | 1024.9 |
| 20260506085110 | 59 | 217 | 1.0 | 5.0 | 0.00 | 0.00 | 0.00 | 53 | 1025.0 |
| 20260506084610 | 58 | 217 | 3.0 | 5.0 | 0.00 | 0.00 | 0.00 | 53 | 1024.9 |
| 20260506084343 | 57 | 135 | 3.0 | 5.0 | 0.00 | 0.00 | 0.00 | 55 | 1024.8 |
| 20260506083610 | 57 | 182 | 1.0 | 4.0 | 0.00 | 0.00 | 0.00 | 55 | 1024.9 |
| 20260506083109 | 57 | 154 | 2.0 | 4.0 | 0.00 | 0.00 | 0.00 | 56 | 1024.8 |
| 20260506082609 | 58 | 144 | 2.0 | 4.0 | 0.00 | 0.00 | 0.00 | 55 | 1024.8 |
| 20260506082329 | 58 | 199 | 1.0 | 4.0 | 0.00 | 0.00 | 0.00 | 54 | 1024.8 |
| 20260506081610 | 59 | 144 | 2.0 | 4.0 | 0.00 | 0.00 | 0.00 | 53 | 1024.7 |
| 20260506081109 | 60 | 134 | 0.0 | 4.0 | 0.00 | 0.00 | 0.00 | 52 | 1024.6 |
| 20260506080610 | 61 | 151 | 0.0 | 4.0 | 0.00 | 0.00 | 0.00 | 50 | 1024.6 |
| 20260506080108 | 62 | 107 | 1.0 | 4.0 | 0.00 | 0.00 | 0.00 | 49 | 1024.6 |
| 20260506073109 | 67 | 282 | 1.0 | 9.0 | 0.00 | 0.00 | 0.00 | 44 | 1024.4 |
| 20260506072608 | 67 | 269 | 3.0 | 9.0 | 0.00 | 0.00 | 0.00 | 44 | 1024.2 |
| 20260506072109 | 67 | 268 | 2.0 | 9.0 | 0.00 | 0.00 | 0.00 | 44 | 1024.2 |
| 20260506071607 | 66 | 300 | 3.0 | 13.0 | 0.00 | 0.00 | 0.00 | 44 | 1024.2 |
| 20260506071107 | 66 | 300 | 3.0 | 13.0 | 0.00 | 0.00 | 0.00 | 45 | 1024.4 |
| 20260506070834 | 66 | 265 | 3.0 | 10.0 | 0.00 | 0.00 | 0.00 | 45 | 1024.4 |
| 20260506070107 | 66 | 276 | 4.0 | 6.0 | 0.00 | 0.00 | 0.00 | 46 | 1024.2 |
| 20260506062107 | 65 | 268 | 0.0 | 3.0 | 0.00 | 0.00 | 0.00 | 47 | 1024.2 |
| 20260506061606 | 65 | 279 | 1.0 | 3.0 | 0.00 | 0.00 | 0.00 | 47 | 1024.1 |
| 20260506061107 | 64 | 226 | 0.0 | 3.0 | 0.00 | 0.00 | 0.00 | 48 | 1024.0 |
| 20260506060606 | 65 | 258 | 0.0 | 1.0 | 0.00 | 0.00 | 0.00 | 47 | 1024.0 |
| 20260506060107 | 66 | 128 | 0.0 | 1.0 | 0.00 | 0.00 | 0.00 | 46 | 1024.0 |
| 20260506051105 | 71 | 293 | 2.0 | 6.0 | 0.00 | 0.00 | 0.00 | 39 | 1023.5 |
| 20260506050606 | 71 | 275 | 1.0 | 6.0 | 0.00 | 0.00 | 0.00 | 39 | 1023.5 |
| 20260506050332 | 71 | 286 | 1.0 | 5.0 | 0.00 | 0.00 | 0.00 | 39 | 1023.4 |
| 20260506045104 | 71 | 300 | 2.0 | 10.0 | 0.00 | 0.00 | 0.00 | 38 | 1023.3 |
| 20260506044605 | 71 | 288 | 2.0 | 9.0 | 0.00 | 0.00 | 0.00 | 38 | 1023.3 |
| 20260506044104 | 72 | 278 | 2.0 | 9.0 | 0.00 | 0.00 | 0.00 | 38 | 1023.3 |
| 20260506043604 | 72 | 271 | 3.0 | 7.0 | 0.00 | 0.00 | 0.00 | 37 | 1023.2 |
| 20260506043105 | 72 | 338 | 3.0 | 6.0 | 0.00 | 0.00 | 0.00 | 37 | 1023.1 |
| 20260506042604 | 72 | 258 | 1.0 | 7.0 | 0.00 | 0.00 | 0.00 | 37 | 1023.1 |
| 20260506042105 | 73 | 269 | 3.0 | 10.0 | 0.00 | 0.00 | 0.00 | 36 | 1023.1 |
| 20260506041604 | 73 | 276 | 4.0 | 10.0 | 0.00 | 0.00 | 0.00 | 36 | 1023.0 |
| 20260506041103 | 73 | 262 | 4.0 | 10.0 | 0.00 | 0.00 | 0.00 | 36 | 1022.9 |
| 20260506040603 | 73 | 275 | 5.0 | 10.0 | 0.00 | 0.00 | 0.00 | 36 | 1022.9 |
| 20260506040104 | 73 | 265 | 5.0 | 11.0 | 0.00 | 0.00 | 0.00 | 35 | 1022.7 |
| 20260506035604 | 73 | 261 | 4.0 | 11.0 | 0.00 | 0.00 | 0.00 | 35 | 1022.6 |
| 20260506035106 | 74 | 283 | 3.0 | 11.0 | 0.00 | 0.00 | 0.00 | 35 | 1022.5 |
| 20260506035059 | 73 | 278 | 4.0 | 7.0 | 0.00 | 0.00 | 0.00 | 35 | 1022.4 |
| 20260506034103 | 74 | 285 | 3.0 | 7.0 | 0.00 | 0.00 | 0.00 | 34 | 1022.4 |
| 20260506033604 | 74 | 295 | 3.0 | 11.0 | 0.00 | 0.00 | 0.00 | 34 | 1022.3 |
| 20260506033102 | 74 | 275 | 3.0 | 11.0 | 0.00 | 0.00 | 0.00 | 33 | 1022.2 |
| 20260506032603 | 75 | 279 | 3.0 | 11.0 | 0.00 | 0.00 | 0.00 | 33 | 1022.0 |
| 20260506032103 | 75 | 285 | 4.0 | 11.0 | 0.00 | 0.00 | 0.00 | 33 | 1022.0 |
| 20260506031602 | 75 | 285 | 5.0 | 12.0 | 0.00 | 0.00 | 0.00 | 32 | 1021.9 |
| 20260506031321 | 75 | 268 | 4.0 | 12.0 | 0.00 | 0.00 | 0.00 | 32 | 1021.9 |
| 20260506030601 | 75 | 285 | 4.0 | 14.0 | 0.00 | 0.00 | 0.00 | 32 | 1021.7 |
| 20260506030103 | 75 | 259 | 6.0 | 14.0 | 0.00 | 0.00 | 0.00 | 32 | 1021.6 |
| 20260506025601 | 76 | 292 | 2.0 | 10.0 | 0.00 | 0.00 | 0.00 | 32 | 1021.6 |
| 20260506025104 | 76 | 285 | 4.0 | 9.0 | 0.00 | 0.00 | 0.00 | 31 | 1021.5 |
| 20260506024829 | 76 | 265 | 1.0 | 7.0 | 0.00 | 0.00 | 0.00 | 31 | 1021.5 |
| 20260506024322 | 77 | 289 | 3.0 | 9.0 | 0.00 | 0.00 | 0.00 | 30 | 1021.5 |
| 20260506023602 | 77 | 288 | 4.0 | 9.0 | 0.00 | 0.00 | 0.00 | 30 | 1021.4 |
| 20260506023101 | 78 | 252 | 2.0 | 13.0 | 0.00 | 0.00 | 0.00 | 29 | 1021.5 |
| 20260506022602 | 79 | 289 | 3.0 | 13.0 | 0.00 | 0.00 | 0.00 | 28 | 1021.4 |
| 20260506022100 | 80 | 274 | 2.0 | 9.0 | 0.00 | 0.00 | 0.00 | 27 | 1021.5 |
| 20260506021602 | 80 | 243 | 2.0 | 13.0 | 0.00 | 0.00 | 0.00 | 27 | 1021.5 |
| 20260506021100 | 80 | 298 | 5.0 | 13.0 | 0.00 | 0.00 | 0.00 | 26 | 1021.5 |
| 20260506020603 | 81 | 269 | 2.0 | 13.0 | 0.00 | 0.00 | 0.00 | 26 | 1021.5 |
| 20260506020318 | 81 | 279 | 3.0 | 11.0 | 0.00 | 0.00 | 0.00 | 25 | 1021.4 |
| 20260506015600 | 82 | 240 | 5.0 | 11.0 | 0.00 | 0.00 | 0.00 | 25 | 1021.3 |
| 20260506015100 | 82 | 45 | 3.0 | 12.0 | 0.00 | 0.00 | 0.00 | 26 | 1021.4 |
| 20260506014808 | 83 | 319 | 5.0 | 9.0 | 0.00 | 0.00 | 0.00 | 24 | 1021.1 |
| 20260506014654 | 82 | 271 | 6.0 | 12.0 | 0.00 | 0.00 | 0.00 | 24 | 1021.3 |
| 20260506013600 | 83 | 290 | 1.0 | 9.0 | 0.00 | 0.00 | 0.00 | 25 | 1021.3 |
| 20260506013101 | 83 | 330 | 2.0 | 9.0 | 0.00 | 0.00 | 0.00 | 24 | 1021.3 |
| 20260506012600 | 84 | 275 | 1.0 | 6.0 | 0.00 | 0.00 | 0.00 | 24 | 1021.3 |
| 20260506012106 | 83 | 282 | 1.0 | 6.0 | 0.00 | 0.00 | 0.00 | 24 | 1021.3 |
| 20260506011600 | 84 | 298 | 2.0 | 5.0 | 0.00 | 0.00 | 0.00 | 24 | 1021.3 |
| 20260506011326 | 84 | 282 | 2.0 | 5.0 | 0.00 | 0.00 | 0.00 | 24 | 1021.1 |
| 20260506010559 | 84 | 279 | 2.0 | 5.0 | 0.00 | 0.00 | 0.00 | 24 | 1021.1 |
| 20260506010059 | 85 | 25 | 1.0 | 10.0 | 0.00 | 0.00 | 0.00 | 24 | 1021.1 |
| 20260506005600 | 84 | 286 | 0.0 | 10.0 | 0.00 | 0.00 | 0.00 | 23 | 1021.1 |
| 20260506005058 | 84 | 245 | 3.0 | 9.0 | 0.00 | 0.00 | 0.00 | 23 | 1021.1 |
| 20260506004600 | 85 | 266 | 1.0 | 9.0 | 0.00 | 0.00 | 0.00 | 23 | 1021.1 |
| 20260506004059 | 85 | 282 | 1.0 | 7.0 | 0.00 | 0.00 | 0.00 | 23 | 1021.1 |
| 20260506003600 | 84 | 285 | 2.0 | 7.0 | 0.00 | 0.00 | 0.00 | 23 | 1021.1 |
| 20260506003321 | 85 | 324 | 1.0 | 7.0 | 0.00 | 0.00 | 0.00 | 23 | 1021.1 |
| 20260506002558 | 85 | 293 | 0.0 | 6.0 | 0.00 | 0.00 | 0.00 | 23 | 1021.1 |
| 20260506002059 | 85 | 283 | 2.0 | 7.0 | 0.00 | 0.00 | 0.00 | 22 | 1021.3 |
| 20260506001558 | 85 | 238 | 5.0 | 7.0 | 0.00 | 0.00 | 0.00 | 21 | 1021.3 |
| 20260506001059 | 85 | 302 | 2.0 | 4.0 | 0.00 | 0.00 | 0.00 | 22 | 1021.3 |
| 20260506000559 | 85 | 302 | 0.0 | 11.0 | 0.00 | 0.00 | 0.00 | 23 | 1021.4 |
| 20260506000317 | 84 | 288 | 4.0 | 11.0 | 0.00 | 0.00 | 0.00 | 22 | 1021.5 |
| 20260505235558 | 84 | 283 | 2.0 | 5.0 | 0.00 | 0.00 | 0.00 | 22 | 1021.5 |
| 20260505235059 | 83 | 245 | 2.0 | 6.0 | 0.00 | 0.00 | 0.00 | 22 | 1021.5 |
| 20260505234558 | 83 | 261 | 2.0 | 6.0 | 0.00 | 0.00 | 0.00 | 23 | 1021.6 |
| 20260505234057 | 83 | 314 | 3.0 | 5.0 | 0.00 | 0.00 | 0.00 | 22 | 1021.6 |
| 20260505233604 | 84 | 265 | 3.0 | 4.0 | 0.00 | 0.00 | 0.00 | 21 | 1021.6 |
| 20260505233326 | 84 | 182 | 0.0 | 4.0 | 0.00 | 0.00 | 0.00 | 22 | 1021.6 |
| 20260505232559 | 83 | 286 | 2.0 | 6.0 | 0.00 | 0.00 | 0.00 | 21 | 1021.7 |
| 20260505232057 | 84 | 264 | 2.0 | 6.0 | 0.00 | 0.00 | 0.00 | 20 | 1021.6 |
| 20260505231558 | 84 | 293 | 4.0 | 10.0 | 0.00 | 0.00 | 0.00 | 21 | 1021.7 |
| 20260505231057 | 85 | 269 | 3.0 | 10.0 | 0.00 | 0.00 | 0.00 | 22 | 1021.8 |
| 20260505230556 | 86 | 281 | 2.0 | 5.0 | 0.00 | 0.00 | 0.00 | 21 | 1021.8 |
| 20260505230057 | 87 | 281 | 2.0 | 5.0 | 0.00 | 0.00 | 0.00 | 21 | 1021.8 |
| 20260505225557 | 86 | 3 | 0.0 | 5.0 | 0.00 | 0.00 | 0.00 | 22 | 1021.8 |
| 20260505225057 | 86 | 62 | 2.0 | 5.0 | 0.00 | 0.00 | 0.00 | 22 | 1021.8 |
| 20260505224556 | 85 | 269 | 1.0 | 6.0 | 0.00 | 0.00 | 0.00 | 20 | 1021.9 |